| time (UTC) | temp F | wind direction | speed MPH | gust MPH | rain 1hr in | rain 24hr in | rain mn in | humidity % | barometer mb |
| 20260508220203 | 65 | 267 | 7.0 | 20.0 | 0.00 | 0.00 | 0.00 | 51 | 1021.5 |
| 20260508213703 | 62 | 284 | 6.0 | 14.0 | 0.00 | 0.00 | 0.00 | 55 | 1021.5 |
| 20260508213205 | 62 | 282 | 7.0 | 17.0 | 0.00 | 0.00 | 0.00 | 55 | 1021.5 |
| 20260508210204 | 62 | 234 | 3.0 | 17.0 | 0.00 | 0.00 | 0.00 | 56 | 1021.4 |
| 20260508203704 | 60 | 276 | 5.0 | 9.0 | 0.00 | 0.00 | 0.00 | 57 | 1021.3 |
| 20260508203204 | 60 | 266 | 4.0 | 14.0 | 0.00 | 0.00 | 0.00 | 58 | 1021.4 |
| 20260508200703 | 58 | 194 | 5.0 | 14.0 | 0.00 | 0.00 | 0.00 | 61 | 1021.4 |
| 20260508200205 | 58 | 223 | 6.0 | 17.0 | 0.00 | 0.00 | 0.00 | 61 | 1021.4 |
| 20260508193704 | 58 | 254 | 5.0 | 13.0 | 0.00 | 0.00 | 0.00 | 61 | 1021.2 |
| 20260508193205 | 57 | 218 | 5.0 | 12.0 | 0.00 | 0.00 | 0.00 | 63 | 1021.3 |
| 20260508190704 | 56 | 210 | 6.0 | 15.0 | 0.00 | 0.00 | 0.00 | 66 | 1021.2 |
| 20260508190204 | 56 | 239 | 6.0 | 15.0 | 0.00 | 0.00 | 0.00 | 66 | 1021.2 |
| 20260508183204 | 56 | 247 | 3.0 | 12.0 | 0.00 | 0.00 | 0.00 | 68 | 1021.1 |
| 20260508180703 | 56 | 223 | 5.0 | 12.0 | 0.00 | 0.00 | 0.00 | 68 | 1020.7 |
| 20260508180203 | 55 | 181 | 5.0 | 14.0 | 0.00 | 0.00 | 0.00 | 68 | 1020.7 |
| 20260508173703 | 54 | 225 | 3.0 | 10.0 | 0.00 | 0.00 | 0.00 | 73 | 1020.6 |
| 20260508173204 | 54 | 228 | 4.0 | 10.0 | 0.00 | 0.00 | 0.00 | 73 | 1020.5 |
| 20260508170704 | 54 | 167 | 2.0 | 7.0 | 0.00 | 0.00 | 0.00 | 74 | 1020.0 |
| 20260508170204 | 54 | 171 | 3.0 | 12.0 | 0.00 | 0.00 | 0.00 | 74 | 1020.0 |
| 20260508163704 | 54 | 132 | 5.0 | 8.0 | 0.00 | 0.00 | 0.00 | 73 | 1019.8 |
| 20260508160704 | 54 | 173 | 3.0 | 6.0 | 0.00 | 0.00 | 0.00 | 75 | 1019.6 |
| 20260508160204 | 54 | 252 | 3.0 | 9.0 | 0.00 | 0.00 | 0.00 | 75 | 1019.6 |
| 20260508153704 | 53 | 171 | 4.0 | 7.0 | 0.00 | 0.00 | 0.00 | 76 | 1019.8 |
| 20260508150204 | 52 | 176 | 4.0 | 9.0 | 0.00 | 0.00 | 0.00 | 78 | 1019.8 |
| 20260508143704 | 51 | 167 | 4.0 | 12.0 | 0.00 | 0.00 | 0.00 | 81 | 1019.5 |
| 20260508143203 | 51 | 223 | 3.0 | 10.0 | 0.00 | 0.00 | 0.00 | 81 | 1019.4 |
| 20260508140204 | 51 | 171 | 3.0 | 8.0 | 0.00 | 0.00 | 0.00 | 82 | 1018.7 |
| 20260508133704 | 51 | 186 | 2.0 | 10.0 | 0.00 | 0.00 | 0.00 | 82 | 1018.4 |
| 20260508133204 | 52 | 166 | 2.0 | 8.0 | 0.00 | 0.00 | 0.00 | 82 | 1018.3 |
| 20260508130705 | 51 | 162 | 4.0 | 9.0 | 0.00 | 0.00 | 0.00 | 82 | 1017.9 |
| 20260508123703 | 51 | 138 | 1.0 | 3.0 | 0.00 | 0.00 | 0.00 | 84 | 1017.6 |
| 20260508123204 | 51 | 153 | 0.0 | 3.0 | 0.00 | 0.00 | 0.00 | 84 | 1017.6 |
| 20260508120704 | 51 | 136 | 2.0 | 7.0 | 0.00 | 0.00 | 0.00 | 84 | 1017.5 |
| 20260508120204 | 51 | 86 | 1.0 | 3.0 | 0.00 | 0.00 | 0.00 | 84 | 1017.5 |
| 20260508113205 | 52 | 128 | 2.0 | 3.0 | 0.00 | 0.00 | 0.00 | 85 | 1017.2 |
| 20260508110704 | 51 | 126 | 1.0 | 3.0 | 0.00 | 0.00 | 0.00 | 85 | 1017.0 |
| 20260508110204 | 51 | 96 | 1.0 | 3.0 | 0.00 | 0.00 | 0.00 | 84 | 1016.9 |
| 20260508103704 | 52 | 128 | 1.0 | 2.0 | 0.00 | 0.00 | 0.00 | 84 | 1016.7 |
| 20260508103204 | 52 | 94 | 1.0 | 3.0 | 0.00 | 0.00 | 0.00 | 84 | 1016.7 |
| 20260508100704 | 52 | 98 | 2.0 | 3.0 | 0.00 | 0.00 | 0.00 | 83 | 1016.4 |
| 20260508100204 | 52 | 106 | 0.0 | 3.0 | 0.00 | 0.00 | 0.00 | 83 | 1016.4 |
| 20260508093703 | 53 | 144 | 0.0 | 2.0 | 0.00 | 0.00 | 0.00 | 82 | 1016.4 |
| 20260508093204 | 53 | 144 | 0.0 | 3.0 | 0.00 | 0.00 | 0.00 | 82 | 1016.4 |
| 20260508083703 | 54 | 125 | 1.0 | 3.0 | 0.00 | 0.00 | 0.00 | 81 | 1016.3 |
| 20260508083203 | 53 | 90 | 1.0 | 3.0 | 0.00 | 0.00 | 0.00 | 82 | 1016.3 |
| 20260508080204 | 54 | 171 | 0.0 | 0.0 | 0.00 | 0.00 | 0.00 | 81 | 1016.3 |
| 20260508073703 | 55 | 171 | 0.0 | 0.0 | 0.00 | 0.00 | 0.00 | 79 | 1016.4 |
| 20260508073204 | 55 | 171 | 0.0 | 2.0 | 0.00 | 0.00 | 0.00 | 79 | 1016.4 |
| 20260508070703 | 55 | 110 | 1.0 | 3.0 | 0.00 | 0.00 | 0.00 | 78 | 1016.2 |
| 20260508070204 | 56 | 121 | 0.0 | 5.0 | 0.00 | 0.00 | 0.00 | 78 | 1016.3 |
| 20260508063704 | 56 | 105 | 1.0 | 2.0 | 0.00 | 0.00 | 0.00 | 77 | 1016.4 |
| 20260508063204 | 56 | 124 | 1.0 | 6.0 | 0.00 | 0.00 | 0.00 | 77 | 1016.3 |
| 20260508060704 | 56 | 106 | 2.0 | 3.0 | 0.00 | 0.00 | 0.00 | 75 | 1016.4 |
| 20260508060204 | 56 | 90 | 2.0 | 3.0 | 0.00 | 0.00 | 0.00 | 75 | 1016.4 |
| 20260508053704 | 56 | 51 | 1.0 | 2.0 | 0.00 | 0.00 | 0.00 | 74 | 1016.4 |
| 20260508053204 | 56 | 46 | 1.0 | 2.0 | 0.00 | 0.00 | 0.00 | 74 | 1016.5 |
| 20260508050704 | 57 | 46 | 0.0 | 0.0 | 0.00 | 0.00 | 0.00 | 72 | 1016.5 |
| 20260508050204 | 58 | 46 | 0.0 | 2.0 | 0.00 | 0.00 | 0.00 | 71 | 1016.5 |
| 20260508043704 | 58 | 46 | 1.0 | 2.0 | 0.00 | 0.00 | 0.00 | 69 | 1016.7 |
| 20260508040704 | 59 | 46 | 0.0 | 0.0 | 0.00 | 0.00 | 0.00 | 67 | 1016.8 |
| 20260508040204 | 60 | 46 | 0.0 | 2.0 | 0.00 | 0.00 | 0.00 | 67 | 1016.7 |
| 20260508033703 | 61 | 17 | 0.0 | 0.0 | 0.00 | 0.00 | 0.00 | 63 | 1016.5 |
| 20260508033204 | 62 | 0 | 0.0 | 2.0 | 0.00 | 0.00 | 0.00 | 62 | 1016.6 |
| 20260508030704 | 64 | 30 | 0.0 | 2.0 | 0.00 | 0.00 | 0.00 | 59 | 1016.6 |
| 20260508030204 | 64 | 30 | 0.0 | 3.0 | 0.00 | 0.00 | 0.00 | 58 | 1016.5 |
| 20260508023704 | 65 | 351 | 1.0 | 2.0 | 0.00 | 0.00 | 0.00 | 55 | 1016.8 |
| 20260508023204 | 65 | 299 | 2.0 | 3.0 | 0.00 | 0.00 | 0.00 | 56 | 1016.7 |
| 20260508020704 | 66 | 316 | 0.0 | 2.0 | 0.00 | 0.00 | 0.00 | 54 | 1016.9 |
| 20260508020203 | 66 | 300 | 1.0 | 3.0 | 0.00 | 0.00 | 0.00 | 55 | 1017.0 |
| 20260508013704 | 67 | 351 | 1.0 | 5.0 | 0.00 | 0.00 | 0.00 | 54 | 1017.0 |
| 20260508010704 | 67 | 346 | 2.0 | 3.0 | 0.00 | 0.00 | 0.00 | 52 | 1017.3 |
| 20260508010203 | 67 | 17 | 2.0 | 8.0 | 0.00 | 0.00 | 0.00 | 53 | 1017.4 |
| 20260508003704 | 68 | 330 | 3.0 | 8.0 | 0.00 | 0.00 | 0.00 | 53 | 1017.4 |
| 20260508003205 | 67 | 259 | 2.0 | 8.0 | 0.00 | 0.00 | 0.00 | 53 | 1017.5 |
| 20260508000705 | 69 | 41 | 2.0 | 6.0 | 0.00 | 0.00 | 0.00 | 51 | 1017.5 |
| 20260508000205 | 68 | 77 | 2.0 | 5.0 | 0.00 | 0.00 | 0.00 | 52 | 1017.5 |
| 20260507233204 | 70 | 355 | 2.0 | 8.0 | 0.00 | 0.00 | 0.00 | 50 | 1017.7 |
| 20260507230704 | 69 | 298 | 2.0 | 7.0 | 0.00 | 0.00 | 0.00 | 51 | 1017.8 |
| 20260507223704 | 66 | 281 | 2.0 | 8.0 | 0.00 | 0.00 | 0.00 | 54 | 1018.3 |
| 20260507223205 | 67 | 276 | 5.0 | 9.0 | 0.00 | 0.00 | 0.00 | 53 | 1018.3 |